Iowa City, IA

10:47 AM CST on December 10, 2019 (GMT -0600)
Iowa City Municipal

Weather History for KIOW - October, 2019

Change the Weather History Date:

Monday, October 28, 2019

  Actual Average Record
Temperature  
Mean Temperature 40 °F 48 °F  
Max Temperature 46 °F 58 °F 77 °F (1950)
Min Temperature 34 °F 38 °F 22 °F (1976)
Degree Days  
Heating Degree Days 25 17  
Month to date heating degree days 398 358  
Since 1 July heating degree days 405 470  
Cooling Degree Days 0 0  
Month to date cooling degree days 18 10  
Year to date cooling degree days 1175 912  
Moisture  
Dew Point 29 °F    
Average Humidity 71    
Maximum Humidity 96    
Minimum Humidity 45    
Precipitation  
Precipitation 0.16 in 0.09 in 0.90 in (1984)
Month to date precipitation 2.07 2.59  
Year to date precipitation 39.04 32.13  
Sea Level Pressure  
Sea Level Pressure 30.13 in    
Wind  
Wind Speed 8 mph (NNW)    
Max Wind Speed 15 mph    
Max Gust Speed 21 mph    
Visibility 7 miles    
Events Rain , Snow    
T = Trace of Precipitation, MM = Missing Value Source: NWS Daily Summary

Daily Weather History Graph

Daily Weather History Graph

Search for Another Location

Airport or City:

Astronomy

Oct. 28, 2019 Rise Set
Actual Time 7:33 AM CDT 6:06 PM CDT
Civil Twilight 7:04 AM CDT 6:34 PM CDT
Nautical Twilight 6:31 AM CDT 7:07 PM CDT
Astronomical Twilight 5:59 AM CDT 7:39 PM CDT
Moon 7:54 AM CDT (10/28) 6:51 PM CDT (10/28)
Length of Visible Light 11h 30m
Length of Day
10h 33m
New Moon, 0% of the Moon is Illuminated
Oct 28
New Moon
Nov 4
First Quarter
Nov 12
Full
Nov 19
Last Quarter
Nov 26
New

Hourly Weather History & Observations

Time (CDT) Temp. Windchill Dew Point Humidity Pressure Visibility Wind Dir Wind Speed Gust Speed Precip Events Conditions
12:52 AM 46.0 °F 41.0 °F 35.1 °F 66% 30.08 in 10.0 mi NW 10.4 mph - N/A   Overcast
1:52 AM 45.0 °F 39.7 °F 34.0 °F 65% 30.08 in 10.0 mi NNW 10.4 mph - N/A   Overcast
2:52 AM 44.1 °F 39.5 °F 34.0 °F 68% 30.09 in 10.0 mi NNW 8.1 mph - N/A   Overcast
3:52 AM 44.1 °F 39.5 °F 33.1 °F 65% 30.09 in 10.0 mi NW 8.1 mph - N/A   Overcast
4:52 AM 43.0 °F 37.2 °F 34.0 °F 71% 30.10 in 10.0 mi NNW 10.4 mph - N/A   Overcast
5:52 AM 42.1 °F 36.1 °F 34.0 °F 73% 30.12 in 10.0 mi NW 10.4 mph - N/A   Overcast
6:52 AM 42.1 °F 36.1 °F 30.9 °F 65% 30.14 in 10.0 mi NW 10.4 mph - N/A   Overcast
8:52 AM 39.9 °F 34.5 °F 27.0 °F 60% 30.16 in 10.0 mi NW 8.1 mph - N/A   Overcast
9:52 AM 39.9 °F 33.9 °F 25.0 °F 55% 30.17 in 10.0 mi NNW 9.2 mph - N/A   Overcast
10:52 AM 39.9 °F 33.9 °F 25.0 °F 55% 30.16 in 10.0 mi NW 9.2 mph - N/A   Overcast
11:52 AM 41.0 °F 35.2 °F 26.1 °F 55% 30.16 in 10.0 mi NNW 9.2 mph - N/A   Overcast
12:52 PM 41.0 °F 34.3 °F 25.0 °F 53% 30.14 in 10.0 mi NW 11.5 mph - N/A   Overcast
1:52 PM 42.1 °F 36.6 °F 24.1 °F 49% 30.13 in 10.0 mi North 9.2 mph - N/A   Overcast
2:52 PM 43.0 °F 38.8 °F 25.0 °F 49% 30.11 in 10.0 mi NW 6.9 mph - N/A   Overcast
3:52 PM 43.0 °F 40.3 °F 25.0 °F 49% 30.11 in 10.0 mi NW 4.6 mph - N/A   Overcast
4:52 PM 43.0 °F 39.5 °F 25.0 °F 49% 30.10 in 10.0 mi NNW 5.8 mph - N/A   Overcast
5:52 PM 43.0 °F - 23.0 °F 45% 30.10 in 10.0 mi Calm Calm - N/A   Overcast
6:52 PM 42.1 °F 39.2 °F 24.1 °F 49% 30.09 in 10.0 mi North 4.6 mph - N/A   Overcast
7:52 PM 41.0 °F 39.0 °F 28.0 °F 60% 30.11 in 10.0 mi NW 3.5 mph - 0.00 in Rain Light Rain
8:52 PM 39.9 °F 35.8 °F 28.0 °F 63% 30.10 in 8.0 mi NW 5.8 mph - 0.00 in Rain Light Rain
9:43 PM 37.0 °F 30.4 °F 28.9 °F 73% 30.11 in 4.0 mi NNW 9.2 mph - 0.00 in Snow Light Snow
9:52 PM 36.0 °F 27.5 °F 30.0 °F 79% 30.14 in 3.0 mi NW 12.7 mph - 0.00 in Snow Light Snow
10:16 PM 35.1 °F 29.3 °F 32.0 °F 89% 30.13 in 2.5 mi NW 6.9 mph - 0.01 in Snow Light Snow
10:35 PM 35.1 °F 28.6 °F 32.0 °F 89% 30.14 in 3.0 mi NNW 8.1 mph - 0.02 in Snow Light Snow
10:39 PM 35.1 °F 29.3 °F 32.0 °F 89% 30.14 in 2.5 mi NNW 6.9 mph - 0.02 in Snow Light Snow
10:52 PM 34.0 °F 25.0 °F 30.9 °F 89% 30.16 in 1.5 mi NNW 12.7 mph 20.7 mph 0.03 in Snow Light Snow
11:01 PM 34.0 °F 25.5 °F 30.9 °F 89% 30.14 in 1.0 mi NNW 11.5 mph - 0.01 in Snow Light Snow
11:08 PM 34.0 °F 27.2 °F 30.9 °F 89% 30.15 in 1.2 mi NNW 8.1 mph - 0.01 in Snow Light Snow
11:23 PM 34.0 °F 27.2 °F 30.9 °F 89% 30.15 in 1.2 mi NNW 8.1 mph - 0.02 in Snow Light Snow
11:36 PM 34.0 °F 28.0 °F 32.0 °F 92% 30.15 in 1.0 mi North 6.9 mph - 0.04 in Snow Light Snow
11:42 PM 34.0 °F 29.8 °F 30.9 °F 89% 30.16 in 0.8 mi North 4.6 mph - 0.05 in Snow Light Snow
11:52 PM 34.0 °F 29.8 °F 32.0 °F 92% 30.18 in 0.8 mi NNW 4.6 mph - 0.07 in Snow Light Snow